Weather History for Pocatello, ID

Change the Weather History Date:

Saturday, January 25, 2014

  Actual Average Record
Temperature  
Mean Temperature 25 °F 25 °F  
Max Temperature 37 °F 33 °F 54 °F (1953)
Min Temperature 12 °F 16 °F -31 °F (1949)
Degree Days  
Heating Degree Days 40 40  
Month to date heating degree days 894 1020  
Since 1 July heating degree days 3894 4005  
Cooling Degree Days 0 0  
Month to date cooling degree days 0 0  
Year to date cooling degree days 0 0  
Moisture  
Dew Point 16 °F    
Average Humidity 70    
Maximum Humidity 92    
Minimum Humidity 47    
Precipitation  
Precipitation 0.00 in 0.03 in 0.44 in (1997)
Month to date precipitation 0.46 0.82  
Year to date precipitation 0.46 0.82  
Snow  
Snow 0.00 in - - ()
Month to date snowfall 2.3  
Since 1 July snowfall 11.9  
Snow Depth 0.00 in    
Sea Level Pressure  
Sea Level Pressure 30.48 in    
Wind  
Wind Speed 4 mph (SW)    
Max Wind Speed 10 mph    
Max Gust Speed 13 mph    
Visibility 8 miles    
Events Fog    
T = Trace of Precipitation, MM = Missing Value Source: NWS Daily Summary

Daily Weather History Graph

Daily Weather History Graph

Search for Another Location

Airport:

Trip Planner

Search our weather history database for the weather conditions in past years. The results will help you decide how hot, cold, wet, or windy it might be!

Date:

Astronomy

Jan. 25, 2014 Rise Set
Actual Time 7:51 AM MST 5:34 PM MST
Civil Twilight 7:21 AM MST 6:04 PM MST
Nautical Twilight 6:46 AM MST 6:39 PM MST
Astronomical Twilight 6:13 AM MST 7:12 PM MST
Moon 2:27 AM MST (1/25) 12:37 PM MST (1/25)
Length of Visible Light 10h 43m
Length of Day
9h 42m
Waning Crescent, 33% of the Moon is Illuminated
Jan 25
Waning Crescent
Jan 30
New
Feb 6
First Quarter
Feb 14
Full
Feb 22
Last Quarter

Hourly Weather History & Observations

Time (MST) Temp. Windchill Dew Point Humidity Pressure Visibility Wind Dir Wind Speed Gust Speed Precip Events Conditions
12:53 AM 21.9 °F 17.2 °F 15.1 °F 75% 30.57 in 10.0 mi South 3.5 mph - N/A   Clear
1:53 AM 19.9 °F - 14.0 °F 78% 30.57 in 10.0 mi Calm Calm - N/A   Clear
2:53 AM 17.1 °F - 14.0 °F 88% 30.56 in 10.0 mi Calm Calm - N/A   Clear
3:53 AM 18.0 °F 12.7 °F 12.9 °F 81% 30.55 in 10.0 mi WSW 3.5 mph - N/A   Clear
4:53 AM 16.0 °F - 12.0 °F 84% 30.56 in 10.0 mi Calm Calm - N/A   Clear
5:53 AM 14.0 °F - 10.0 °F 84% 30.57 in 10.0 mi Calm Calm - N/A   Clear
6:53 AM 12.9 °F 5.2 °F 10.0 °F 88% 30.58 in 10.0 mi West 4.6 mph - N/A   Clear
7:53 AM 12.9 °F 3.8 °F 10.0 °F 88% 30.58 in 7.0 mi WSW 5.8 mph - N/A   Partly Cloudy
8:53 AM 15.1 °F 9.4 °F 12.9 °F 91% 30.60 in 9.0 mi WSW 3.5 mph - N/A   Partly Cloudy
9:53 AM 21.9 °F - 16.0 °F 78% 30.58 in 10.0 mi Calm Calm - N/A   Partly Cloudy
10:53 AM 26.1 °F - 18.0 °F 71% 30.56 in 10.0 mi Calm Calm - N/A   Clear
11:53 AM 30.9 °F 27.5 °F 18.0 °F 59% 30.52 in 10.0 mi Variable 3.5 mph - N/A   Clear
12:53 PM 32.0 °F 26.4 °F 19.0 °F 59% 30.49 in 10.0 mi WSW 5.8 mph - N/A   Clear
1:53 PM 34.0 °F 29.8 °F 19.0 °F 54% 30.45 in 10.0 mi West 4.6 mph - N/A   Clear
2:53 PM 35.1 °F 32.2 °F 18.0 °F 50% 30.44 in 10.0 mi SW 3.5 mph - N/A   Clear
3:53 PM 37.0 °F 31.6 °F 19.0 °F 48% 30.41 in 10.0 mi SW 6.9 mph - N/A   Clear
4:53 PM 35.1 °F 28.6 °F 19.0 °F 52% 30.41 in 10.0 mi West 8.1 mph - N/A   Clear
5:53 PM 30.0 °F 23.2 °F 19.9 °F 66% 30.44 in 10.0 mi SW 6.9 mph - N/A   Clear
6:53 PM 23.0 °F 17.0 °F 17.1 °F 78% 30.47 in 10.0 mi SSE 4.6 mph - N/A   Clear
7:53 PM 25.0 °F 14.8 °F 18.0 °F 75% 30.45 in 10.0 mi SW 10.4 mph - N/A   Clear
8:53 PM 21.0 °F 13.4 °F 17.1 °F 85% 30.45 in 10.0 mi SSW 5.8 mph - N/A   Clear
9:53 PM 21.0 °F 11.4 °F 18.0 °F 88% 30.43 in 8.0 mi SW 8.1 mph - N/A   Clear
10:28 PM 19.0 °F 8.2 °F 17.1 °F 92% 30.29 in 2.5 mi SW 9.2 mph - N/A   Partly Cloudy
10:31 PM 19.0 °F 8.2 °F 17.1 °F 92% 30.29 in 1.0 mi WSW 9.2 mph - N/A   Mist
10:37 PM 19.9 °F 9.3 °F 18.0 °F 92% 30.29 in 0.2 mi WSW 9.2 mph - N/A Fog Light Freezing Fog
10:53 PM 19.9 °F 9.3 °F 18.0 °F 92% 30.42 in 0.2 mi WSW 9.2 mph - N/A Fog Light Freezing Fog
11:53 PM 19.9 °F 11.1 °F 19.0 °F 96% 30.39 in 0.2 mi SW 6.9 mph - N/A Fog Light Freezing Fog